Location: Chandler
(33.3060°N, 111.8410°W)
Time: 19:52:12
(UTC-07:00)

Amateur Radio Satellites - All Passes

Search period start: 21 December 2014 19:22
Search period end: 22 December 2014 19:22
Location: Chandler, 33.3060°N, 111.8410°W

Satellite Date Start Highest point End Downlink Frequencies (MHz)
Time Altitude Azimuth
BRITE-PL 21 Dec 19:28:32 19:29:26 11° 67° (ENE) 19:30:21 437.365/2234.400
MaSat-1 21 Dec 19:28:39 19:29:27 11° 253° (WSW) 19:30:15 437.345
GOMX 1 21 Dec 19:47:54 19:49:44 13° 67° (ENE) 19:51:34 467.674
PRISM 21 Dec 19:48:14 19:50:34 15° 292° (WNW) 19:52:55 437.425
CANX-2 21 Dec 19:52:52 19:56:12 23° 71° (ENE) 19:59:33 2200.000
CUSAT 1 21 Dec 19:54:22 20:01:39 36° 75° (ENE) 20:09:15 437.405
STRAND 1 21 Dec 19:57:28 20:02:13 41° 288° (WNW) 20:06:58 437.568
DOVE 4 21 Dec 20:06:50 20:09:16 15° 68° (ENE) 20:11:43 437.250
COMPASS 1 21 Dec 20:11:02 20:14:24 24° 71° (ENE) 20:17:47 437.405
SEEDS 21 Dec 20:17:48 20:21:38 34° 73° (ENE) 20:25:30 437.485
CUTE 1.7 + AOD 2 21 Dec 20:22:39 20:26:43 47° 75° (ENE) 20:30:51 437.475
DELFI C3 21 Dec 20:23:05 20:23:28 10° 66° (ENE) 20:23:52 145.870
CINEMA 3 21 Dec 20:23:15 20:25:21 14° 67° (ENE) 20:27:27 145.822/145.860
HO-68 21 Dec 20:38:28 20:45:40 89° 74° (ENE) 20:52:53 435.675
ISS 21 Dec 20:40:06 20:43:22 75° 43° (NE) 20:46:37 145.825
DX 1 21 Dec 20:44:18 20:47:25 20° 69° (ENE) 20:50:32 434.975-435.025
DANDE 21 Dec 20:51:33 20:59:39 78° 82° (E) 21:08:22 436.750
SO-50 21 Dec 20:54:40 20:59:09 80° 299° (WNW) 21:03:48 436.795
Oscar 11 21 Dec 21:03:25 21:07:29 42° 74° (ENE) 21:11:36 145.826/435.025
BRITE-PL 21 Dec 21:03:30 21:07:33 46° 260° (W) 21:11:32 437.365/2234.400
AAUSAT CUBESAT 2 21 Dec 21:09:20 21:13:31 73° 259° (WSW) 21:17:45 437.432
UKube-1 21 Dec 21:12:51 21:16:54 41° 73° (ENE) 21:20:58 .
GOMX 1 21 Dec 21:23:37 21:27:30 38° 261° (W) 21:31:24 467.674
RS-15 21 Dec 21:26:32 21:37:58 86° 62° (ENE) 21:49:55 29.354- 29.394
CANX-2 21 Dec 21:28:34 21:32:00 24° 264° (W) 21:35:28 2200.000
CUBEBUG 2 21 Dec 21:32:24 21:36:28 56° 75° (ENE) 21:40:39 437.445
CUSAT 1 21 Dec 21:37:06 21:44:45 47° 269° (W) 21:52:43 437.405
ZACube-1 21 Dec 21:37:21 21:41:19 44° 74° (ENE) 21:45:21 437.345
DOVE 4 21 Dec 21:43:04 21:46:45 32° 262° (W) 21:50:30 437.250
VELOX 1 21 Dec 21:43:57 21:47:46 29° 71° (ENE) 21:51:35 145.980
COMPASS 1 21 Dec 21:46:43 21:50:00 22° 264° (W) 21:53:19 437.405
ESTCUBE 1 21 Dec 21:52:52 21:55:18 14° 67° (ENE) 21:57:43 437.505/2401.250
DELFI C3 21 Dec 21:54:14 21:58:13 52° 260° (W) 22:02:15 145.870
BEESAT 3 21 Dec 21:55:00 21:58:39 29° 56° (NE) 22:02:14 437.485
SEEDS 21 Dec 21:55:02 21:57:31 15° 266° (W) 22:00:01 437.485
50 SAT 21 Dec 21:55:27 21:58:59 31° 73° (ENE) 22:02:33 437.505
CINEMA 3 21 Dec 21:58:20 22:02:11 37° 262° (W) 22:06:07 145.822/145.860
CUTE 1.7 + AOD 2 21 Dec 22:01:38 22:02:51 11° 268° (W) 22:04:05 437.475
FUNcube-1 21 Dec 22:03:27 22:07:36 85° 258° (WSW) 22:11:52 145.935
UWE-3 21 Dec 22:07:44 22:11:50 61° 260° (W) 22:16:03 435.000/436.395/437.385
AIST 2 21 Dec 22:10:01 22:12:59 18° 52° (NE) 22:15:55 435.215
UNISAT 6 21 Dec 22:13:59 22:17:33 21° 95° (E) 22:21:06 437.425
QB50P2 21 Dec 22:14:01 22:15:09 11° 93° (E) 22:16:16 145.880/145.840
DX 1 21 Dec 22:19:40 22:23:26 29° 262° (W) 22:27:12 434.975-435.025
POLYITAN 1 21 Dec 22:22:12 22:24:34 14° 94° (E) 22:26:56 437.675
NANOSAT C BR1 21 Dec 22:23:12 22:25:34 14° 94° (E) 22:27:55 145.865
AISAT 21 Dec 22:27:14 22:31:39 81° 258° (WSW) 22:36:05 437.250
HUMSAT D 21 Dec 22:27:32 22:31:38 76° 258° (WSW) 22:35:49 437.325/437.525
CUBEBUG 1 21 Dec 22:28:46 22:32:41 33° 72° (ENE) 22:36:36 437.445
HO-68 21 Dec 22:31:24 22:34:04 12° 269° (W) 22:36:45 435.675
BEESAT 2 21 Dec 22:35:44 22:39:56 75° 62° (ENE) 22:44:02 435.950
DANDE 21 Dec 22:36:51 22:42:28 21° 275° (W) 22:48:20 436.750
QB50P1 21 Dec 22:37:02 22:40:20 22° 96° (E) 22:43:38 145.935-145.965
Oscar 11 21 Dec 22:41:52 22:43:49 13° 267° (W) 22:45:46 145.826/435.025
ANTELSAT 21 Dec 22:45:13 22:49:48 48° 99° (E) 22:54:21 437.575/2403.000
UKube-1 21 Dec 22:51:06 22:53:11 13° 266° (W) 22:55:18 .
YUBILEINY 21 Dec 22:59:23 23:06:33 30° 85° (E) 23:13:42 435.215
POPSAT HIP 1 21 Dec 23:05:13 23:09:21 48° 100° (E) 23:13:29 437.405
PCSat 21 Dec 23:12:50 23:18:14 65° 63° (ENE) 23:23:35 145.827
ZACube-1 21 Dec 23:16:40 23:17:54 11° 268° (W) 23:19:09 437.345
TIGRISAT 21 Dec 23:19:46 23:24:28 70° 284° (WNW) 23:29:08 435.000
VELOX 1 21 Dec 23:21:08 23:24:19 19° 264° (W) 23:27:31 145.980
TISAT 1 21 Dec 23:23:25 23:27:09 32° 72° (ENE) 23:30:54 437.305
BUGSAT 1 21 Dec 23:24:42 23:28:45 67° 101° (ESE) 23:32:49 437.445
ESTCUBE 1 21 Dec 23:27:25 23:31:45 44° 261° (W) 23:36:05 437.505/2401.250
SPROUT 21 Dec 23:31:08 23:35:03 36° 73° (ENE) 23:38:59 437.525
50 SAT 21 Dec 23:31:55 23:34:14 15° 266° (W) 23:36:34 437.505
DUCHIFAT 1 21 Dec 23:32:24 23:36:39 76° 283° (WNW) 23:40:55 145.980
BEESAT 3 21 Dec 23:33:35 23:36:36 20° 250° (WSW) 23:39:35 437.485
RS-15 21 Dec 23:41:27 23:49:01 21° 259° (WSW) 23:56:51 29.354- 29.394
O/OREOS (USA 219) 21 Dec 23:45:08 23:48:37 23° 102° (ESE) 23:52:07 437.305
QB50P2 21 Dec 23:47:09 23:51:16 48° 286° (WNW) 23:55:23 145.880/145.840
AIST 2 21 Dec 23:47:47 23:51:42 36° 247° (WSW) 23:55:34 435.215
UNISAT 6 21 Dec 23:50:08 23:54:18 32° 288° (WNW) 23:58:27 437.425
POLYITAN 1 21 Dec 23:56:38 00:00:36 37° 287° (WNW) 00:04:33 437.675
NANOSAT C BR1 21 Dec 23:57:36 00:01:31 36° 287° (WNW) 00:05:26 145.865
CUBEBUG 1 22 Dec 00:06:19 00:09:06 17° 265° (W) 00:11:53 437.445
M-CUBED/EXP-1 PRIME 22 Dec 00:12:12 00:12:59 10° 59° (ENE) 00:13:46 437.505
QB50P1 22 Dec 00:12:39 00:16:07 25° 289° (WNW) 00:19:35 145.935-145.965
ANTELSAT 22 Dec 00:23:34 00:26:08 15° 293° (WNW) 00:28:43 437.575/2403.000
POPSAT HIP 1 22 Dec 00:43:15 00:44:47 12° 293° (WNW) 00:46:19 437.405
SWISSCUBE 22 Dec 00:48:17 00:52:51 46° 73° (ENE) 00:57:26 437.505
ITUPSAT 1 22 Dec 00:49:25 00:53:57 43° 73° (ENE) 00:58:29 437.325
YUBILEINY 22 Dec 00:54:28 01:02:51 50° 281° (W) 01:11:16 435.215
Oscar 19 22 Dec 00:54:48 00:58:11 17° 94° (E) 01:01:33 437.125/150
PCSat 22 Dec 00:58:41 01:00:59 13° 257° (WSW) 01:03:18 145.827
TISAT 1 22 Dec 01:00:25 01:03:01 16° 265° (W) 01:05:37 437.305
SPROUT 22 Dec 01:08:54 01:11:14 14° 266° (W) 01:13:34 437.525
BEESAT 22 Dec 01:12:44 01:17:31 81° 76° (ENE) 01:22:19 436.000
AUBIESAT-1 22 Dec 01:15:56 01:20:30 46° 69° (ENE) 01:25:10 437.475
O/OREOS (USA 219) 22 Dec 01:24:11 01:27:51 25° 296° (WNW) 01:31:33 437.305
M-CUBED/EXP-1 PRIME 22 Dec 01:42:25 01:47:13 83° 253° (WSW) 01:52:09 437.505
STARS 22 Dec 01:46:39 01:49:58 21° 69° (ENE) 01:53:17 437.465
KKS-1 22 Dec 01:52:43 01:56:49 39° 73° (ENE) 02:00:57 437.445
VERMONT LUNAR 22 Dec 02:00:46 02:04:14 55° 150° (SSE) 02:07:42 437.305
PHONESAT 2.4 22 Dec 02:21:56 02:25:27 51° 149° (SSE) 02:28:58 2401.200-2431.200
SWISSCUBE 22 Dec 02:28:19 02:30:53 14° 266° (W) 02:33:28 437.505
ITUPSAT 1 22 Dec 02:29:06 02:31:58 16° 266° (W) 02:34:50 437.325
Oscar 19 22 Dec 02:32:45 02:37:41 45° 288° (WNW) 02:42:35 437.125/150
ITAMSAT 1 22 Dec 02:51:39 02:56:51 85° 284° (WNW) 03:02:01 435.822/435.867
AUBIESAT-1 22 Dec 02:52:33 02:55:34 17° 262° (W) 02:58:38 437.475
AO-7 22 Dec 02:54:34 02:55:24 10° 91° (E) 02:56:15 29.400- 29.500
Gurwin Techsat 1B 22 Dec 02:55:46 03:01:02 63° 101° (ESE) 03:06:17 435.225
HORYU 2 22 Dec 03:19:38 03:23:52 39° 99° (E) 03:28:03 437.375
STARS 22 Dec 03:22:34 03:26:15 27° 263° (W) 03:29:58 437.465
KKS-1 22 Dec 03:31:08 03:33:34 15° 266° (W) 03:36:02 437.445
VERMONT LUNAR 22 Dec 03:39:23 03:42:39 35° 345° (NNW) 03:45:55 437.305
PHONESAT 2.4 22 Dec 04:00:48 04:04:12 37° 344° (NNW) 04:07:37 2401.200-2431.200
AIST 1 22 Dec 04:06:33 04:10:47 67° 266° (W) 04:14:59
Gurwin Techsat 1B 22 Dec 04:37:50 04:40:24 14° 296° (WNW) 04:42:58 435.225
AO-7 22 Dec 04:40:50 04:49:14 75° 106° (ESE) 04:57:33 29.400- 29.500
MOZHAYETS 4 22 Dec 04:49:29 04:54:07 79° 258° (WSW) 04:58:48
GONETS M04 22 Dec 04:53:48 05:01:35 37° 87° (E) 05:09:22
HORYU 2 22 Dec 04:57:24 05:00:10 16° 293° (WNW) 05:02:55 437.375
PRISM 22 Dec 04:59:28 05:02:07 16° 68° (ENE) 05:04:45 437.425
JAS-2 22 Dec 05:10:35 05:15:49 47° 99° (E) 05:20:46 435.910
VERMONT LUNAR 22 Dec 05:18:34 05:21:31 24° 2° (N) 05:24:28 437.305
SO-50 22 Dec 05:30:21 05:34:43 31° 55° (NE) 05:39:04 436.795
STRAND 1 22 Dec 05:31:50 05:35:13 18° 66° (ENE) 05:38:36 437.568
PHONESAT 2.4 22 Dec 05:40:23 05:43:27 25° 1° (N) 05:46:31 2401.200-2431.200
Cubesat XI-IV 22 Dec 06:00:17 06:04:48 28° 97° (E) 06:09:17 437.490
CUBESAT XI-V 22 Dec 06:17:23 06:21:59 61° 75° (ENE) 06:26:35 437.345
CUTE-I 22 Dec 06:32:29 06:37:43 58° 101° (E) 06:42:57 437.470
PRISM 22 Dec 06:33:30 06:37:20 33° 262° (W) 06:41:10 437.425
AO-7 22 Dec 06:35:15 06:41:08 22° 302° (WNW) 06:47:01 29.400- 29.500
GONETS M04 22 Dec 06:49:58 06:58:09 42° 283° (WNW) 07:06:23
VERMONT LUNAR 22 Dec 06:56:54 07:00:19 45° 19° (NNE) 07:03:43 437.305
JAS-2 22 Dec 06:57:08 07:00:25 17° 296° (WNW) 07:03:36 435.910
STRAND 1 22 Dec 07:09:09 07:14:01 44° 260° (W) 07:18:53 437.568
SO-50 22 Dec 07:11:04 07:15:07 26° 249° (WSW) 07:19:09 436.795
PHONESAT 2.4 22 Dec 07:19:09 07:22:38 44° 18° (NNE) 07:26:08 2401.200-2431.200
Cubesat XI-IV 22 Dec 07:40:13 07:44:47 30° 291° (WNW) 07:49:20 437.490
CUBESAT XI-V 22 Dec 07:59:30 07:59:44 10° 268° (W) 07:59:57 437.345
HO-68 22 Dec 08:12:17 08:17:26 21° 95° (E) 08:22:31 435.675
CUTE-I 22 Dec 08:14:22 08:17:14 15° 295° (WNW) 08:20:07 437.470
CUTE 1.7 + AOD 2 22 Dec 08:14:40 08:16:05 11° 92° (E) 08:17:31 437.475
VERMONT LUNAR 22 Dec 08:35:21 08:38:34 34° 213° (SSW) 08:41:47 437.305
MaSat-1 22 Dec 08:40:24 08:42:34 34° 294° (WNW) 08:44:40 437.345
Oscar 11 22 Dec 08:57:45 08:58:44 11° 92° (E) 08:59:43 145.826/435.025
AAUSAT CUBESAT 2 22 Dec 08:57:45 09:01:12 24° 96° (E) 09:04:37 437.432
PHONESAT 2.4 22 Dec 08:57:55 09:01:17 37° 213° (SSW) 09:04:39 2401.200-2431.200
CUSAT 1 22 Dec 09:02:51 09:05:50 26° 87° (E) 09:09:33 437.405
BRITE-PL 22 Dec 09:10:52 09:15:44 71° 101° (ESE) 09:20:59 437.365/2234.400
UNISAT 6 22 Dec 09:11:39 09:12:51 11° 65° (ENE) 09:14:04 437.425
CANX-2 22 Dec 09:17:21 09:21:41 81° 102° (ESE) 09:25:58 2200.000
GOMX 1 22 Dec 09:28:05 09:33:00 77° 102° (ESE) 09:38:14 467.674
CUBEBUG 2 22 Dec 09:28:31 09:31:47 19° 95° (E) 09:35:05 437.445
QB50P1 22 Dec 09:29:33 09:29:37 10° 66° (ENE) 09:29:40 145.935-145.965
ZACube-1 22 Dec 09:31:52 09:34:06 13° 93° (E) 09:36:20 437.345
COMPASS 1 22 Dec 09:33:49 09:38:05 81° 102° (ESE) 09:42:18 437.405
RS-15 22 Dec 09:39:01 09:44:37 16° 100° (E) 09:50:10 29.354- 29.394
DELFI C3 22 Dec 09:39:22 09:42:57 29° 97° (E) 09:46:30 145.870
ANTELSAT 22 Dec 09:41:06 09:44:40 25° 70° (ENE) 09:48:19 437.575/2403.000
SEEDS 22 Dec 09:42:00 09:46:15 65° 284° (WNW) 09:50:28 437.485
DOVE 4 22 Dec 09:44:50 09:49:46 84° 102° (ESE) 09:54:56 437.250
CUTE 1.7 + AOD 2 22 Dec 09:48:05 09:52:13 46° 286° (WNW) 09:56:19 437.475
POPSAT HIP 1 22 Dec 09:55:06 09:58:19 22° 70° (ENE) 10:01:32 437.405
CINEMA 3 22 Dec 09:56:27 10:01:16 66° 101° (E) 10:06:13 145.822/145.860
FUNcube-1 22 Dec 09:56:37 10:00:27 26° 96° (E) 10:04:17 145.935
HO-68 22 Dec 09:58:27 10:05:27 60° 289° (WNW) 10:12:25 435.675
O/OREOS (USA 219) 22 Dec 09:58:43 10:02:21 23° 64° (ENE) 10:06:00 437.305
UWE-3 22 Dec 10:01:51 10:06:09 37° 98° (E) 10:10:29 435.000/436.395/437.385
DANDE 22 Dec 10:03:19 10:06:36 59° 281° (WNW) 10:10:59 436.750
BUGSAT 1 22 Dec 10:11:36 10:15:01 26° 72° (ENE) 10:18:24 437.445
DX 1 22 Dec 10:11:37 10:15:56 65° 102° (ESE) 10:20:14 434.975-435.025
TIGRISAT 22 Dec 10:14:34 10:18:50 61° 75° (ENE) 10:23:13 435.000
HUMSAT D 22 Dec 10:16:49 10:20:22 24° 96° (E) 10:23:55 437.325/437.525
DUCHIFAT 1 22 Dec 10:21:12 10:25:12 44° 74° (ENE) 10:29:12 145.980
AISAT 22 Dec 10:23:06 10:26:51 27° 97° (E) 10:30:36 437.250
Oscar 11 22 Dec 10:30:54 10:35:08 50° 285° (WNW) 10:39:20 145.826/435.025
AAUSAT CUBESAT 2 22 Dec 10:33:27 10:36:42 22° 290° (WNW) 10:39:56 437.432
QB50P2 22 Dec 10:35:59 10:40:10 72° 76° (ENE) 10:44:23 145.880/145.840
UKube-1 22 Dec 10:40:38 10:44:53 57° 285° (WNW) 10:49:07 .
JUGNU 22 Dec 10:42:05 10:45:25 15° 167° (SSE) 10:48:45 437.505
UNISAT 6 22 Dec 10:44:49 10:49:04 55° 260° (W) 10:53:27 437.425
POLYITAN 1 22 Dec 10:45:31 10:49:43 86° 257° (WSW) 10:53:57 437.675
NANOSAT C BR1 22 Dec 10:45:59 10:50:11 86° 258° (WSW) 10:54:24 145.865
CUSAT 1 22 Dec 10:46:52 10:49:06 15° 294° (WNW) 10:51:41 437.405
BRITE-PL 22 Dec 10:52:27 10:53:45 11° 293° (WNW) 10:55:04 437.365/2234.400
QB50P1 22 Dec 11:00:51 11:04:58 55° 260° (W) 11:09:06 145.935-145.965
CUBEBUG 2 22 Dec 11:04:14 11:08:30 36° 287° (WNW) 11:12:50 437.445
ZACube-1 22 Dec 11:06:15 11:10:37 46° 286° (WNW) 11:15:01 437.345
YUBILEINY 22 Dec 11:09:21 11:18:01 68° 82° (E) 11:26:40 435.215
GOMX 1 22 Dec 11:10:00 11:10:34 10° 294° (WNW) 11:11:07 467.674
50 SAT 22 Dec 11:14:19 11:18:29 81° 283° (WNW) 11:22:38 437.505
VELOX 1 22 Dec 11:14:42 11:19:07 74° 284° (WNW) 11:23:32 145.980
DELFI C3 22 Dec 11:15:14 11:17:58 17° 291° (WNW) 11:20:40 145.870
ANTELSAT 22 Dec 11:17:56 11:21:22 23° 265° (W) 11:24:53 437.575/2403.000
ESTCUBE 1 22 Dec 11:24:23 11:28:46 52° 100° (E) 11:33:07 437.505/2401.250
POPSAT HIP 1 22 Dec 11:30:40 11:34:04 24° 264° (W) 11:37:29 437.405
FUNcube-1 22 Dec 11:32:59 11:36:38 24° 289° (WNW) 11:40:18 145.935
CINEMA 3 22 Dec 11:36:20 11:37:54 12° 294° (WNW) 11:39:29 145.822/145.860
O/OREOS (USA 219) 22 Dec 11:37:55 11:41:39 26° 258° (WSW) 11:45:23 437.305
UWE-3 22 Dec 11:39:15 11:42:22 18° 291° (WNW) 11:45:30 435.000/436.395/437.385
ISS 22 Dec 11:42:33 11:44:50 17° 128° (SE) 11:47:07 145.825
RS-15 22 Dec 11:44:16 11:55:16 86° 116° (ESE) 12:06:14 29.354- 29.394
BEESAT 3 22 Dec 11:47:10 11:49:26 15° 108° (ESE) 11:51:44 437.485
BUGSAT 1 22 Dec 11:47:35 11:50:27 18° 264° (W) 11:53:18 437.445
SRMSAT 22 Dec 11:49:52 11:52:36 13° 165° (SSE) 11:55:21 437.500
HUMSAT D 22 Dec 11:52:36 11:56:01 23° 289° (WNW) 11:59:27 437.325/437.525
CUBEBUG 1 22 Dec 11:57:47 12:02:05 64° 284° (WNW) 12:06:22 437.445
AISAT 22 Dec 11:59:53 12:03:18 22° 290° (WNW) 12:06:43 437.250
DUCHIFAT 1 22 Dec 11:59:58 12:01:14 11° 267° (W) 12:02:31 145.980
Oscar 19 22 Dec 12:08:08 12:11:24 17° 66° (ENE) 12:14:41 437.125/150
PCSat 22 Dec 12:09:45 12:12:42 15° 104° (ESE) 12:15:38 145.827
BEESAT 2 22 Dec 12:27:08 12:30:57 39° 113° (ESE) 12:34:50 435.950
JUGNU 22 Dec 12:29:21 12:33:48 22° 177° (S) 12:38:14 437.505
TISAT 1 22 Dec 12:47:44 12:51:57 74° 284° (WNW) 12:56:11 437.305
SWISSCUBE 22 Dec 12:54:12 12:57:15 17° 94° (E) 13:00:16 437.505
ITUPSAT 1 22 Dec 12:55:43 12:58:32 16° 94° (E) 13:01:21 437.325
SPROUT 22 Dec 12:57:44 13:01:58 59° 285° (WNW) 13:06:12 437.525
ESTCUBE 1 22 Dec 13:03:24 13:05:08 12° 294° (WNW) 13:06:52 437.505/2401.250
YUBILEINY 22 Dec 13:08:02 13:13:54 21° 278° (W) 13:19:47 435.215
BEESAT 22 Dec 13:17:53 13:21:59 29° 97° (E) 13:26:04 436.000
ISS 22 Dec 13:18:12 13:21:13 32° 321° (NW) 13:24:14 145.825
BEESAT 3 22 Dec 13:23:27 13:27:14 37° 303° (WNW) 13:31:06 437.485
M-CUBED/EXP-1 PRIME 22 Dec 13:33:37 13:34:04 10° 95° (E) 13:34:30 437.505
SRMSAT 22 Dec 13:36:48 13:41:07 21° 175° (S) 13:45:26 437.500
AIST 2 22 Dec 13:41:45 13:45:54 62° 300° (WNW) 13:50:09 435.215
Oscar 19 22 Dec 13:45:23 13:50:18 47° 260° (W) 13:55:16 437.125/150
AO-7 22 Dec 13:48:44 13:51:49 13° 52° (NE) 13:54:53 29.400- 29.500
PCSat 22 Dec 13:50:14 13:55:32 57° 298° (WNW) 14:00:53 145.827
KKS-1 22 Dec 13:50:52 13:51:50 11° 93° (E) 13:52:49 437.445
RS-15 22 Dec 14:00:26 14:09:00 26° 319° (NW) 14:17:40 29.354- 29.394
ITAMSAT 1 22 Dec 14:05:26 14:10:37 86° 257° (WSW) 14:15:49 435.822/435.867
BEESAT 2 22 Dec 14:06:47 14:09:21 16° 309° (NW) 14:11:57 435.950
Gurwin Techsat 1B 22 Dec 14:12:39 14:17:54 66° 75° (ENE) 14:23:10 435.225
HORYU 2 22 Dec 14:14:49 14:18:15 22° 69° (ENE) 14:21:43 437.375
JUGNU 22 Dec 14:17:59 14:22:13 20° 187° (S) 14:26:26 437.505
SWISSCUBE 22 Dec 14:30:47 14:35:12 39° 288° (WNW) 14:39:35 437.505
ITUPSAT 1 22 Dec 14:32:05 14:36:34 42° 287° (WNW) 14:41:02 437.325
AUBIESAT-1 22 Dec 14:38:03 14:42:11 69° 106° (ESE) 14:45:55 437.475
BEESAT 22 Dec 14:55:54 14:59:39 24° 291° (WNW) 15:03:23 436.000
M-CUBED/EXP-1 PRIME 22 Dec 15:05:25 15:09:26 45° 291° (WNW) 15:13:06 437.505
GONETS M04 22 Dec 15:11:46 15:15:20 13° 65° (ENE) 15:18:52
STARS 22 Dec 15:15:55 15:20:23 77° 102° (ESE) 15:24:49 437.465
JAS-2 22 Dec 15:18:47 15:23:29 18° 64° (ENE) 15:27:56 435.910
KKS-1 22 Dec 15:24:22 15:28:44 54° 286° (WNW) 15:33:05 437.445
SRMSAT 22 Dec 15:25:21 15:29:41 21° 185° (S) 15:34:01 437.500
AO-7 22 Dec 15:34:51 15:43:04 70° 70° (ENE) 15:51:22 29.400- 29.500
HORYU 2 22 Dec 15:50:58 15:54:44 27° 263° (W) 15:58:32 437.375
Gurwin Techsat 1B 22 Dec 15:56:21 15:58:14 12° 268° (W) 16:00:06 435.225
JUGNU 22 Dec 16:08:28 16:10:33 12° 196° (SSW) 16:12:39 437.505
AIST 1 22 Dec 16:31:29 16:35:52 88° 96° (E) 16:40:14
MOZHAYETS 4 22 Dec 16:49:23 16:53:34 33° 97° (E) 16:57:42
JAS-2 22 Dec 17:00:07 17:07:51 78° 257° (WSW) 17:14:57 435.910
GONETS M04 22 Dec 17:04:41 17:13:28 82° 84° (E) 17:22:09
SRMSAT 22 Dec 17:15:20 17:18:12 14° 195° (SSW) 17:21:03 437.500
Cubesat XI-IV 22 Dec 17:18:23 17:23:00 31° 70° (ENE) 17:27:38 437.490
AO-7 22 Dec 17:30:30 17:36:21 21° 265° (W) 17:42:15 29.400- 29.500
CUTE-I 22 Dec 17:50:14 17:55:29 64° 74° (ENE) 18:00:44 437.470
MaSat-1 22 Dec 18:13:16 18:15:41 54° 67° (ENE) 18:18:15 437.345
CUBESAT XI-V 22 Dec 18:19:20 18:22:48 21° 95° (E) 18:26:14 437.345
PRISM 22 Dec 18:20:31 18:24:29 45° 100° (E) 18:28:25 437.425
MOZHAYETS 4 22 Dec 18:27:18 18:30:30 19° 291° (WNW) 18:33:42
RS-15 22 Dec 18:39:36 18:46:57 19° 34° (NNE) 18:54:26 29.354- 29.394
HO-68 22 Dec 18:41:48 18:42:25 10° 55° (NE) 18:43:03 435.675
JAS-2 22 Dec 18:51:53 18:53:24 11° 269° (W) 18:54:54 435.910
Cubesat XI-IV 22 Dec 18:58:35 19:03:01 27° 263° (W) 19:07:27 437.490
GONETS M04 22 Dec 19:04:20 19:09:05 16° 280° (W) 19:13:50
DANDE 22 Dec 19:05:58 19:10:27 15° 68° (ENE) 19:15:04 436.750
